Погода в Кызылтепе

Узбекистан     40°02′14″N   64°51′04″E
темп.,
°C
ветер,
м/с
пор.,
м/с
влажн.,
%
обл.,
%
осадки,
мм/ч
давл.,
гПа
погр.,
м
27 февраля, сб
сб2723:00−1ссз111483 0.0 1030216
02:00−2сз2215100 0.0 1029247
05:00−2сз0015100 0.0 1029140
08:00−2ююз231889 0.0 1029159
11:00+2ююз551389 0.0 1029732
14:00+5ююз66110 0.0 1028885
17:00+6ююз45130 0.0 1027882
20:00+4ю23190 0.0 102841
28 февраля, вс
вс2823:00+3ююв23220 0.0 102834
02:00+2юв33230 0.0 102635
05:00+1в23270 0.0 102431
08:00+2в23340 0.0 102431
11:00+8в12220 0.0 1022464
14:00+12вюв001865 0.0 1020843
17:00+13ссв111563 0.0 1018936
20:00+9св1124100 0.0 101926
1 марта, пн
пн123:00+9св342593 0.0 101933
02:00+9вюв343397 0.0 101830
05:00+8юв454049 0.0 101748
08:00+8юв57410 0.0 101899
11:00+13ю812260 0.0 1018724
14:00+18ююз910220 0.0 10161097
17:00+18юз67160 0.0 10161075
20:00+13з34230 0.0 101836
2 марта, вт
вт223:00+11ссз343643 0.0 101934
02:00+10с2339100 0.0 102026
05:00+9с453695 0.0 102044
08:00+8ссв343876 0.0 102150
11:00+14с562688 0.0 1021488
14:00+17ссз442061 0.0 10211062
17:00+17ссз541932 0.0 10201580
20:00+13с462676 0.0 1021134
3 марта, ср
ср323:00+9с583839 0.0 1022161
02:00+8с694455 0.0 1021212
05:00+7с694477 0.0 1021249
08:00+7с6845100 0.0 1021226
11:00+11с4535100 0.0 1021355
14:00+14з233055 0.0 10191359
17:00+15сз123027 0.0 10171708
20:00+12св353733 0.0 1017138